FW9110 Weather Reports


Display with metric or nautical units.
time (UTC)temp
F
wind
direction
speed
MPH
gust
MPH
rain 1hr
in
rain 24hr
in
rain mn
in
humidity
%
barometer
mb
20260505151943 75 272 1.0 1.0 0.00 0.00 0.00 53 1011.0
20260505151439 75 150 3.0 3.0 0.00 0.00 0.00 50 1010.8
20260505150937 75 248 2.0 2.0 0.00 0.00 0.00 51 1010.8
20260505150434 75 347 1.0 1.0 0.00 0.00 0.00 51 1010.8
20260505140404 72 296 1.0 1.0 0.00 0.00 0.00 52 1010.9
20260505124817 67 308 0.0 1.0 0.00 0.00 0.00 59 1011.3
20260505124314 66 290 1.0 1.0 0.00 0.00 0.00 60 1011.5
20260505123810 65 337 1.0 3.0 0.00 0.00 0.00 60 1011.5
20260505123307 65 307 0.0 0.0 0.00 0.00 0.00 61 1011.4
20260505122803 64 293 1.0 1.0 0.00 0.00 0.00 62 1011.3
20260505122301 64 334 1.0 1.0 0.00 0.00 0.00 62 1011.3
20260505121757 63 287 2.0 2.0 0.00 0.00 0.00 63 1011.5
20260505121254 63 334 2.0 2.0 0.00 0.00 0.00 64 1011.4
20260505120750 63 283 2.0 3.0 0.00 0.00 0.00 64 1011.2
20260505120246 62 251 2.0 3.0 0.00 0.00 0.00 64 1011.4
20260505115745 62 318 1.0 1.0 0.00 0.00 0.00 66 1011.3
20260505115243 61 291 1.0 2.0 0.00 0.00 0.00 66 1011.1
20260505114740 61 298 0.0 1.0 0.00 0.00 0.00 67 1011.2
20260505114236 61 327 0.0 0.0 0.00 0.00 0.00 68 1011.1
20260505113733 60 298 0.0 0.0 0.00 0.00 0.00 68 1011.2
20260505113229 60 283 3.0 5.0 0.00 0.00 0.00 68 1011.1
20260505112725 60 296 0.0 1.0 0.00 0.00 0.00 67 1011.1
20260505112223 60 314 0.0 0.0 0.00 0.00 0.00 69 1011.0
20260505111723 59 303 0.0 0.0 0.00 0.00 0.00 71 1011.0
20260505111219 59 296 1.0 1.0 0.00 0.00 0.00 71 1011.0
20260505110715 58 307 0.0 0.0 0.00 0.00 0.00 73 1010.9
20260505110213 57 293 0.0 1.0 0.00 0.00 0.00 76 1010.9
20260505102148 54 309 0.0 0.0 0.00 0.00 0.00 84 1010.4
20260505101647 53 313 0.0 0.0 0.00 0.00 0.00 85 1010.3
20260505101143 53 313 0.0 0.0 0.00 0.00 0.00 85 1010.2
20260505100639 53 313 0.0 0.0 0.00 0.00 0.00 85 1010.2
20260505100136 53 282 0.0 0.0 0.00 0.00 0.00 85 1010.1
20260505095632 54 282 0.0 0.0 0.00 0.00 0.00 85 1010.0
20260505095130 54 282 0.0 0.0 0.00 0.00 0.00 84 1010.1
20260505094626 54 282 0.0 0.0 0.00 0.00 0.00 84 1010.2
20260505094122 55 282 0.0 0.0 0.00 0.00 0.00 83 1010.2
20260505093618 55 282 0.0 0.0 0.00 0.00 0.00 82 1010.1
20260505093116 55 282 0.0 0.0 0.00 0.00 0.00 82 1010.1
20260505092613 56 281 0.0 0.0 0.00 0.00 0.00 81 1009.9
20260505092112 56 282 0.0 0.0 0.00 0.00 0.00 80 1010.0
20260505091608 56 282 0.0 0.0 0.00 0.00 0.00 80 1010.0
20260505091106 56 288 0.0 0.0 0.00 0.00 0.00 80 1010.1
20260505090604 57 287 1.0 1.0 0.00 0.00 0.00 80 1009.9
20260505085559 56 294 1.0 1.0 0.00 0.00 0.00 81 1010.0
20260505085057 56 300 0.0 0.0 0.00 0.00 0.00 82 1009.9
20260505084555 57 304 0.0 0.0 0.00 0.00 0.00 82 1010.1
20260505084053 56 300 1.0 2.0 0.00 0.00 0.00 83 1009.9
20260505083549 57 317 0.0 0.0 0.00 0.00 0.00 82 1010.0
20260505083046 57 302 0.0 0.0 0.00 0.00 0.00 82 1009.9
20260505082542 57 308 0.0 0.0 0.00 0.00 0.00 81 1010.0
20260505082039 57 309 0.0 1.0 0.00 0.00 0.00 81 1009.9
20260505081535 57 304 0.0 0.0 0.00 0.00 0.00 82 1010.2
20260505081032 57 305 0.0 0.0 0.00 0.00 0.00 81 1010.1
20260505080529 57 295 0.0 0.0 0.00 0.00 0.00 81 1010.0
20260505080026 57 307 0.0 0.0 0.00 0.00 0.00 82 1010.1
20260505075521 58 314 0.0 0.0 0.00 0.00 0.00 81 1010.1
20260505075018 57 287 1.0 1.0 0.00 0.00 0.00 82 1009.9
20260505074516 57 314 0.0 0.0 0.00 0.00 0.00 82 1009.9
20260505074013 58 324 0.0 0.0 0.00 0.00 0.00 82 1009.8
20260505073510 58 317 0.0 0.0 0.00 0.00 0.00 82 1010.0
20260505073008 58 316 0.0 0.0 0.00 0.00 0.00 82 1009.9
20260505072504 58 303 0.0 0.0 0.00 0.00 0.00 81 1009.9
20260505072000 59 313 0.0 0.0 0.00 0.00 0.00 81 1009.9
20260505071455 59 319 0.0 1.0 0.00 0.00 0.00 82 1009.8
20260505070954 59 297 1.0 2.0 0.00 0.00 0.00 83 1009.7
20260505070450 59 300 0.0 0.0 0.00 0.00 0.00 83 1009.7
20260505065946 59 312 1.0 1.0 0.00 0.00 0.00 84 1009.8
20260505065443 59 309 0.0 1.0 0.00 0.00 0.00 84 1009.8
20260505064939 58 280 2.0 2.0 0.00 0.00 0.00 84 1009.7
20260505064436 58 315 0.0 0.0 0.00 0.00 0.00 84 1009.8
20260505063935 59 316 0.0 0.0 0.00 0.00 0.00 83 1009.7
20260505063431 59 317 0.0 0.0 0.00 0.00 0.00 81 1009.7
20260505062927 59 317 0.0 0.0 0.00 0.00 0.00 81 1009.8
20260505062425 59 317 0.0 0.0 0.00 0.00 0.00 80 1009.7
20260505061921 59 299 0.0 0.0 0.00 0.00 0.00 81 1009.9
20260505061420 59 305 0.0 0.0 0.00 0.00 0.00 81 1009.8
20260505060917 59 307 0.0 0.0 0.00 0.00 0.00 81 1009.9
20260505060414 59 307 0.0 0.0 0.00 0.00 0.00 80 1009.7
20260505055910 60 307 0.0 0.0 0.00 0.00 0.00 79 1009.7
20260505055406 60 289 1.0 1.0 0.00 0.00 0.00 79 1009.9
20260505054903 60 294 1.0 1.0 0.00 0.00 0.00 79 1009.8
20260505054400 60 301 0.0 0.0 0.00 0.00 0.00 79 1009.7
20260505053858 60 269 1.0 2.0 0.00 0.00 0.00 79 1009.8
20260505053355 60 300 0.0 0.0 0.00 0.00 0.00 79 1009.9
20260505052852 60 286 0.0 0.0 0.00 0.00 0.00 79 1010.0
20260505052349 60 286 0.0 0.0 0.00 0.00 0.00 79 1010.1
20260505051846 60 286 0.0 0.0 0.00 0.00 0.00 78 1010.2
20260505051343 60 285 0.0 0.0 0.00 0.00 0.00 78 1010.0
20260505050841 60 299 0.0 0.0 0.00 0.00 0.00 78 1010.0
20260505050340 60 209 1.0 2.0 0.00 0.00 0.00 79 1009.9
20260505041307 60 302 1.0 2.0 0.00 0.00 0.00 76 1009.8
20260505040804 60 289 0.0 1.0 0.00 0.00 0.00 75 1009.8
20260505040301 61 259 3.0 5.0 0.00 0.00 0.00 75 1009.9
20260505035758 61 306 0.0 0.0 0.00 0.00 0.00 73 1009.6
20260505035254 61 326 1.0 1.0 0.00 0.00 0.00 72 1009.7
20260505034751 62 231 1.0 2.0 0.00 0.00 0.00 71 1009.7
20260505034248 62 287 1.0 2.0 0.00 0.00 0.00 70 1009.6
20260505033744 62 292 2.0 2.0 0.00 0.00 0.00 69 1009.5
20260505033242 62 306 1.0 2.0 0.00 0.00 0.00 69 1009.8
20260505032740 62 298 0.0 0.0 0.00 0.00 0.00 69 1009.8
20260505032235 62 271 1.0 2.0 0.00 0.00 0.00 68 1009.7
20260505031733 62 249 1.0 1.0 0.00 0.00 0.00 67 1009.6
20260505031229 62 311 1.0 1.0 0.00 0.00 0.00 67 1009.8
20260505030726 62 309 0.0 1.0 0.00 0.00 0.00 66 1009.7
20260505030222 62 281 1.0 1.0 0.00 0.00 0.00 66 1009.7
20260505025718 62 280 1.0 2.0 0.00 0.00 0.00 65 1009.7
20260505025217 63 299 1.0 2.0 0.00 0.00 0.00 64 1009.8
20260505024715 63 302 0.0 0.0 0.00 0.00 0.00 64 1009.6
20260505024211 62 306 2.0 3.0 0.00 0.00 0.00 65 1009.5
20260505023709 63 320 1.0 1.0 0.00 0.00 0.00 63 1009.7
20260505023206 63 326 1.0 2.0 0.00 0.00 0.00 63 1009.7
20260505022704 63 323 0.0 1.0 0.00 0.00 0.00 63 1009.7
20260505022200 62 294 1.0 2.0 0.00 0.00 0.00 64 1009.6
20260505021657 62 268 0.0 1.0 0.00 0.00 0.00 65 1009.8
20260505021154 62 300 0.0 1.0 0.00 0.00 0.00 64 1009.8
20260505020649 63 320 0.0 0.0 0.00 0.00 0.00 64 1009.8
20260505020145 63 300 0.0 1.0 0.00 0.00 0.00 64 1009.7
20260505015643 63 303 1.0 1.0 0.00 0.00 0.00 63 1009.7
20260505015139 63 304 0.0 0.0 0.00 0.00 0.00 63 1009.5
20260505014636 63 241 3.0 5.0 0.00 0.00 0.00 62 1009.7
20260505014133 63 258 1.0 2.0 0.00 0.00 0.00 62 1009.6
20260505013631 63 288 1.0 1.0 0.00 0.00 0.00 62 1009.4
20260505013128 64 290 1.0 1.0 0.00 0.00 0.00 61 1009.5
20260505012626 64 201 1.0 2.0 0.00 0.00 0.00 61 1009.6
20260505012122 64 314 0.0 1.0 0.00 0.00 0.00 60 1009.3
20260505011618 64 282 1.0 2.0 0.00 0.00 0.00 60 1009.5
20260505011115 64 303 0.0 1.0 0.00 0.00 0.00 60 1009.2
20260505010611 64 292 0.0 1.0 0.00 0.00 0.00 59 1009.4
20260505010108 64 8 1.0 2.0 0.00 0.00 0.00 58 1009.2
20260505005604 64 336 1.0 1.0 0.00 0.00 0.00 57 1009.1
20260505005101 64 233 1.0 2.0 0.00 0.00 0.00 57 1009.4
20260505004558 64 253 4.0 5.0 0.00 0.00 0.00 56 1009.0
20260505004055 64 278 1.0 1.0 0.00 0.00 0.00 56 1009.3
20260505003552 64 305 1.0 2.0 0.00 0.00 0.00 55 1009.3
20260505003049 65 299 1.0 1.0 0.00 0.00 0.00 55 1009.3
20260505002544 65 315 0.0 1.0 0.00 0.00 0.00 55 1009.2
20260505002043 65 281 3.0 3.0 0.00 0.00 0.00 54 1009.0
20260505001540 65 304 1.0 2.0 0.00 0.00 0.00 54 1009.2
20260505001037 65 318 2.0 3.0 0.00 0.00 0.00 54 1009.0
20260505000535 65 176 2.0 3.0 0.00 0.00 0.00 54 1009.0
20260505000032 66 260 3.0 5.0 0.00 0.00 0.00 54 1009.2
20260504235529 66 182 2.0 3.0 0.00 0.00 0.00 53 1009.1
20260504235025 66 283 1.0 1.0 0.00 0.00 0.00 53 1009.2
20260504234522 67 303 1.0 2.0 0.00 0.00 0.00 52 1009.3
20260504234019 67 222 4.0 7.0 0.00 0.00 0.00 50 1009.2
20260504233514 68 238 2.0 2.0 0.00 0.00 0.00 49 1009.2
20260504233012 68 240 4.0 6.0 0.00 0.00 0.00 47 1009.2
20260504232509 68 152 2.0 3.0 0.00 0.00 0.00 46 1009.1
20260504232007 69 288 1.0 2.0 0.00 0.00 0.00 46 1009.1
20260504231503 70 226 3.0 5.0 0.00 0.00 0.00 44 1009.0
20260504230959 70 300 0.0 1.0 0.00 0.00 0.00 42 1009.1
20260504230455 71 296 1.0 1.0 0.00 0.00 0.00 42 1009.1
20260504225954 71 300 1.0 1.0 0.00 0.00 0.00 42 1009.2
20260504225451 71 304 1.0 1.0 0.00 0.00 0.00 41 1009.2
20260504224948 70 267 4.0 9.0 0.00 0.00 0.00 41 1009.0
20260504224444 71 260 5.0 6.0 0.00 0.00 0.00 40 1008.9
20260504223941 71 291 3.0 5.0 0.00 0.00 0.00 40 1008.9
20260504223437 72 328 2.0 2.0 0.00 0.00 0.00 39 1008.9
20260504222933 72 282 4.0 8.0 0.00 0.00 0.00 38 1009.2
20260504222431 72 353 3.0 6.0 0.00 0.00 0.00 38 1009.3
20260504221929 73 249 4.0 6.0 0.00 0.00 0.00 37 1009.0
20260504221425 73 212 3.0 5.0 0.00 0.00 0.00 36 1009.1
20260504220922 73 276 3.0 5.0 0.00 0.00 0.00 36 1009.1
20260504220419 73 49 4.0 5.0 0.00 0.00 0.00 36 1009.2
20260504215916 73 306 3.0 3.0 0.00 0.00 0.00 35 1009.2
20260504215413 73 242 3.0 3.0 0.00 0.00 0.00 35 1009.1
20260504214909 74 238 4.0 6.0 0.00 0.00 0.00 33 1009.1
20260504214406 73 263 5.0 7.0 0.00 0.00 0.00 35 1008.9
20260504213903 74 311 3.0 5.0 0.00 0.00 0.00 33 1009.2
20260504213358 74 316 2.0 2.0 0.00 0.00 0.00 34 1009.2
20260504212856 74 212 2.0 2.0 0.00 0.00 0.00 33 1009.3
20260504212352 75 29 2.0 3.0 0.00 0.00 0.00 33 1009.2
20260504211850 74 298 2.0 2.0 0.00 0.00 0.00 34 1009.1
20260504211346 75 251 3.0 5.0 0.00 0.00 0.00 33 1009.2
20260504210843 75 291 2.0 3.0 0.00 0.00 0.00 34 1009.2
20260504210340 75 151 2.0 3.0 0.00 0.00 0.00 33 1009.2
20260504205837 74 296 1.0 1.0 0.00 0.00 0.00 34 1009.3
20260504205335 74 234 1.0 1.0 0.00 0.00 0.00 34 1009.3
20260504204833 75 265 2.0 2.0 0.00 0.00 0.00 33 1009.5
20260504204331 74 306 0.0 1.0 0.00 0.00 0.00 34 1009.5
20260504203830 75 312 2.0 3.0 0.00 0.00 0.00 33 1009.4
20260504203327 76 280 2.0 3.0 0.00 0.00 0.00 32 1009.2
20260504202822 75 237 2.0 3.0 0.00 0.00 0.00 33 1009.5
20260504202320 75 307 2.0 3.0 0.00 0.00 0.00 34 1009.5
20260504201816 73 336 2.0 2.0 0.00 0.00 0.00 35 1009.4
20260504201314 72 171 3.0 6.0 0.00 0.00 0.00 36 1009.6
20260504200811 73 240 3.0 5.0 0.00 0.00 0.00 34 1009.7
20260504200308 74 328 4.0 7.0 0.00 0.00 0.00 33 1009.9
20260504195803 73 224 3.0 5.0 0.00 0.00 0.00 33 1010.0
20260504195259 73 298 3.0 5.0 0.00 0.00 0.00 35 1010.1
20260504194757 73 343 3.0 3.0 0.00 0.00 0.00 33 1010.1
20260504194253 73 211 2.0 3.0 0.00 0.00 0.00 33 1010.2
20260504193749 72 331 1.0 1.0 0.00 0.00 0.00 35 1010.1
20260504193247 73 265 5.0 8.0 0.00 0.00 0.00 33 1010.5
20260504192745 73 292 3.0 6.0 0.00 0.00 0.00 34 1010.6
20260504192243 73 311 4.0 5.0 0.00 0.00 0.00 35 1010.5
20260504191741 73 351 1.0 1.0 0.00 0.00 0.00 33 1010.5
20260504191238 72 326 2.0 3.0 0.00 0.00 0.00 35 1010.8
20260504190733 71 176 4.0 5.0 0.00 0.00 0.00 34 1010.7
20260504190230 72 194 6.0 9.0 0.00 0.00 0.00 34 1010.7
20260504185726 73 311 3.0 5.0 0.00 0.00 0.00 35 1010.8
20260504185223 72 223 3.0 3.0 0.00 0.00 0.00 35 1010.9
20260504184719 71 235 2.0 2.0 0.00 0.00 0.00 34 1011.0
20260504184215 72 292 3.0 3.0 0.00 0.00 0.00 35 1011.0
20260504183711 72 295 4.0 5.0 0.00 0.00 0.00 34 1011.0
20260504183208 72 323 1.0 1.0 0.00 0.00 0.00 35 1011.1
20260504182707 71 317 3.0 3.0 0.00 0.00 0.00 36 1011.0
20260504182203 73 252 6.0 8.0 0.00 0.00 0.00 35 1011.1
20260504181701 73 296 1.0 2.0 0.00 0.00 0.00 39 1011.0
20260504181158 72 221 4.0 6.0 0.00 0.00 0.00 34 1011.1
20260504180657 71 264 1.0 2.0 0.00 0.00 0.00 35 1011.1
20260504180155 71 199 3.0 3.0 0.00 0.00 0.00 37 1011.4
20260504175652 71 319 1.0 1.0 0.00 0.00 0.00 36 1011.3
20260504175149 71 294 4.0 8.0 0.00 0.00 0.00 38 1011.4
20260504174647 72 338 1.0 1.0 0.00 0.00 0.00 37 1011.4
20260504174144 72 318 2.0 2.0 0.00 0.00 0.00 38 1011.6
20260504173641 71 320 1.0 1.0 0.00 0.00 0.00 38 1011.5
20260504173138 72 288 2.0 2.0 0.00 0.00 0.00 37 1011.8
20260504172635 71 290 3.0 5.0 0.00 0.00 0.00 41 1011.6
20260504172131 70 300 0.0 1.0 0.00 0.00 0.00 37 1011.8
20260504171628 70 261 4.0 6.0 0.00 0.00 0.00 37 1011.8
20260504171125 70 311 1.0 1.0 0.00 0.00 0.00 40 1011.8
20260504170621 71 326 1.0 3.0 0.00 0.00 0.00 40 1011.9
20260504170119 70 312 1.0 2.0 0.00 0.00 0.00 42 1012.2